Location: Recife
(8.0585°S, 34.8848°W)
Time: 20:03:23
(UTC-03:00)

Explorer 11/Cluster Stage 4 - Pass Details

Date: 21 April 2026
Orbit: 463 x 1174 km, 28.8° (Epoch: 16 May)

Event Time Altitude Azimuth Distance (km) Brightness Sun altitude
Rises 18:59:26 0° 269° (W) 3,757 11.3 -26.3°
Reaches altitude 10° 19:02:56 10° 256° (WSW) 2,682 10.1 -27.2°
Maximum altitude 19:07:52 23° 206° (SSW) 1,751 8.4 -28.4°
Enters shadow 19:08:58 21° 190° (S) 1,761 8.3 -28.6°
Drops below altitude 10° 19:12:09 10° 154° (SSE) 2,288 - -29.4°
Sets 19:14:53 0° 139° (SE) 3,081 - -30.1°
